Tracking 25963 objects as of 12-Aug-2022
HD Live streaming from Space Station
objects crossing your sky now

INS-2TD

Track INS-2TD now!
10-day predictions


NORAD ID: 51658
Int'l Code: 2022-013C
Perigee: 520.6 km
Apogee: 535.4 km
Inclination: 97.6 °
Period: 95.0 minutes
Semi major axis: 6898 km
RCS: Unknown
Launch date: February 14, 2022
Source: India (IND)
Launch site: SRIHARIKOTA (SRI)
aabbcc
Your satellite tracking list
Your tracking list is empty




NASA's NSSDC Master Catalog

Two Line Element Set (TLE):
1 51658U 22013C   22223.63120833  .00004633  00000-0  25114-3 0  9992
2 51658  97.5552 231.4354 0010785  14.3231 345.8304 15.15041151 27029
Source of the keplerian elements: AFSPC